Regional Weather Roundup
Issued by NWS

Home | Current Version | Previous Version | Text Only | Print | Product List | Glossary On
Versions: 1 2 3 4 5 6 7 8 9 10 11 12 13 14 15 16 17 18 19 20 21 22 23 24 25 26 27 28 29 30 31 32 33 34 35 36 37 38 39 40 41 42 43 44 45 46 47 48 49 50
000
ASCA44 KEWX 260320
RWRMX

LATIN AMERICA AND CARIBBEAN REGIONAL WEATHER ROUNDUP
NATIONAL WEATHER SERVICE AUSTIN/SAN ANTONIO TX
1000 PM CDT WED MAY 25 2016

NOTE: "FAIR" INDICATED FEW OR NO CLOUDS BELOW 12,000 FEET WITH NO
SIGNIFICANT WEATHER AND/OR OBSTRUCTIONS TO VISIBILITY.

BAJA CALIFORNIA

CITY           SKY/WX    TMP DP  RH WIND       PRES   REMARKS
LA PAZ         CLOUDY    77  50  38 S9        29.99R
MEXICALI       CLEAR     72  37  28 W15       29.91R
S.J. DEL CABO  MOCLDY    79  64  61 CALM      29.98R
TIJUANA        PTCLDY    61  48  63 W10       30.12R

NORTHWESTERN MEXICO

CITY           SKY/WX    TMP DP  RH WIND       PRES   REMARKS
CULIACAN       CLOUDY    82  70  65 W8        29.94S
DURANGO        MOCLDY    77  37  24 CALM      30.27R
GUAYMAS          N/A    N/A N/A N/A MISG        N/A
HERMOSILLO     CLEAR     82  30  15 S12       29.96R
CD. JUAREZ     CLEAR     84  32  15 W17       29.91R
LOS MOCHIS     CLOUDY    81  63  54 CALM      29.95S

NORTHEASTERN MEXICO

CITY           SKY/WX    TMP DP  RH WIND       PRES   REMARKS
CHIHUAHUA      MOCLDY    77  41  27 SW26      30.10S
MONCLOVA         N/A    N/A N/A N/A MISG        N/A
MONTERREY      CLOUDY    75  66  73 NW12      30.02R
REYNOSA        MOCLDY    79  73  83 E7        29.98R
SALTILLO       MOCLDY    66  61  82 N12       30.27R
TORREON        MOCLDY    88  45  22 NW23      30.07R
CD. VICTORIA     N/A    N/A N/A N/A MISG        N/A

WESTERN MEXICO

CITY           SKY/WX    TMP DP  RH WIND       PRES   REMARKS
AGUASCALIENTES CLEAR     79  25  13 SW6       30.22R
COLIMA         PTCLDY    75  64  69 W7        30.06R
DEL BAJIO      PTCLDY    79  46  31 CALM      30.26R
GUADALAJARA    CLEAR     81  45  28 W10       30.19R
MAZATLAN       MOCLDY    81  73  78 NW3       29.93R
P. VALLARTA    CLEAR     79  75  89 CALM      29.94S
URUAPAN          N/A    N/A N/A N/A MISG        N/A
ZACATECAS      CLEAR     75  32  20 W8        30.29R

CENTRAL MEXICO

CITY           SKY/WX    TMP DP  RH WIND       PRES   REMARKS
CUERNAVACA       N/A    N/A N/A N/A MISG        N/A
MEXICO CITY    CLOUDY    70  52  52 SW9       30.38S
MORELIA        MOCLDY    73  55  53 S5        30.25R
POZA RICA      MOCLDY    84  77  79 SE12      29.93R HX  94
QUERETARO      CLOUDY    72  50  46 E12       30.33R
S. LUIS POTOSI PTCLDY    73  61  64 CALM      30.22R
TAMPICO        MOCLDY    82  79  89 E9        29.94R HX  93
TOLUCA         CLOUDY    63  52  67 E13       30.48F

SOUTHERN MEXICO

CITY           SKY/WX    TMP DP  RH WIND       PRES   REMARKS
ACAPULCO       PTCLDY    84  77  79 W12       29.87R HX  94
B. DE HUATULCO   N/A    N/A N/A N/A MISG        N/A
P. ESCONDIDO     N/A    N/A N/A N/A MISG        N/A
VERACRUZ       PTCLDY    82  81  94 CALM      29.91R HX  95
ZIHUATANEJO      N/A    N/A N/A N/A MISG        N/A

YUCATAN PENINSULA

CITY           SKY/WX    TMP DP  RH WIND       PRES   REMARKS
CAMPECHE       CLEAR     88  81  79 E12       29.89R HX 105
CANCUN         PTCLDY    82  79  89 E7        30.04R HX  93
CHETUMAL       PTCLDY    84  77  79 E12       29.99R HX  94
CD. DEL CARMEN   N/A    N/A N/A N/A MISG        N/A
COZUMEL        PTCLDY    77  75  94 E5        30.03R
MERIDA         CLEAR     86  73  66 NE7       29.95R HX  93
MINATITLAN     CLEAR     86  68  54 N12       29.84R
TAPACHULA      MOCLDY    86  81  84 CALM      29.84S HX 102
TUX. GUTIERREZ PTCLDY    88  61  40 NW7       29.92R
VILLAHERMOSA   CLEAR     84  79  84 N7        29.90R HX  96

CENTRAL AMERICA

CITY           SKY/WX    TMP DP  RH WIND       PRES   REMARKS
MANAGUA        PTCLDY    88  75  66 E12       29.86S HX  97

CARIBBEAN

CITY           SKY/WX    TMP DP  RH WIND       PRES   REMARKS
ARUBA          PTCLDY    82  73  74 E20       29.92S
CURACAO        PTCLDY    82  75  78 E14       29.97S
KINGSTON       PTCLDY    84  70  61 E9        30.00R
NASSAU         PTCLDY    77  68  73 NE9       30.14R
SAN JUAN       PTCLDY    81  73  78 E7        30.06S
SANTO DOMINGO  PTCLDY    72  72 100 N7        30.03
ST. CROIX      CLEAR     79  72  78 NE7       30.06
ST. MAARTEN    LGT RAIN  81  72  74 E7        30.03S
ST. THOMAS     CLEAR     81  72  74 E7        30.05

$$





USA.gov is the U.S. government's official web portal to all federal, state and local government web resources and services.